RH
2 2 1 1 1 1 1 2 2 2 2 3 3 4 4 3 2 3 4 6 6 7 10 24 35 55 100 100 100 100 100 100 99 85 82 100 100 100 100 100 100 100 91 83 73 74 83 60 56 47 43 40 51 57
2 2 2 2 2 2 2 2 2 2 3 3 4 3 3 2 3 3 5 6 7 6 11 24 36 52 100 100 100 100 100 100 91 96 100 100 100 100 99 100 100 100 86 60 71 95 84 76 62 57 56 50 48 60
2 2 2 2 2 2 2 2 2 3 3 3 3 3 3 2 3 4 5 6 6 6 12 24 41 58 93 100 100 100 100 97 87 100 100 98 100 100 100 100 100 94 75 68 85 98 92 79 65 72 70 58 54 66
2 2 2 2 2 2 2 2 3 3 3 3 3 3 3 3 3 5 5 6 6 8 16 31 48 66 100 100 100 100 100 100 95 99 100 93 87 93 100 100 100 96 82 91 96 100 87 70 70 78 67 62 50 87
2 2 2 3 3 3 3 3 3 3 3 3 3 3 3 3 4 5 5 6 6 9 17 29 34 39 100 100 100 100 100 100 100 98 96 100 100 100 100 100 96 100 100 84 100 96 82 75 72 88 80 66 56 87
3 2 3 3 3 3 2 3 3 3 2 2 2 2 3 3 4 5 5 5 6 10 19 28 34 58 100 100 100 100 99 100 100 100 100 100 100 100 100 98 100 100 100 100 100 99 91 75 93 96 81 66 83 94
3 3 3 3 3 3 3 3 3 3 2 2 2 3 3 4 5 5 6 6 6 10 14 21 30 49 95 100 94 93 91 100 100 100 100 100 100 100 100 100 100 100 100 100 100 91 87 95 98 93 85 86 98 95
3 3 3 3 3 3 3 3 3 3 3 2 2 3 3 5 5 5 5 6 9 14 19 30 37 60 97 99 76 84 96 100 100 100 100 100 100 100 100 100 100 100 100 100 100 100 92 87 90 87 79 94 87 83
2 2 2 3 3 3 4 4 3 3 3 3 3 3 4 5 5 5 5 5 7 13 22 35 38 72 92 91 76 80 97 100 100 100 100 100 100 100 100 100 100 100 100 100 100 100 98 88 79 77 77 72 79 100
2 2 2 2 2 3 3 3 3 3 3 3 3 4 4 5 5 5 6 7 8 12 21 27 37 57 62 71 74 85 92 100 100 100 100 100 100 100 100 100 100 100 100 100 100 100 91 84 78 78 68 92 100 100
2 2 2 2 2 2 3 3 3 3 3 3 3 4 4 5 6 6 7 7 9 14 22 28 36 47 50 62 71 81 91 98 100 100 100 100 100 100 100 100 100 100 100 100 100 87 64 68 62 65 76 83 97 100
2 2 2 2 2 3 3 3 3 3 3 3 4 4 5 6 7 8 7 8 10 13 21 31 36 39 43 54 72 80 88 96 100 100 100 100 100 100 100 100 100 100 99 92 69 71 56 65 58 85 98 95 85 75
3 3 3 3 3 3 3 3 4 4 4 4 5 5 6 7 8 10 11 12 12 14 18 25 32 38 43 52 58 64 83 100 95 96 100 100 100 100 100 100 100 96 92 96 98 83 83 90 88 88 97 100 98 97
5 4 4 3 4 4 4 4 5 6 7 7 7 7 10 11 13 15 16 15 15 16 21 28 35 44 48 55 65 74 69 72 64 87 99 100 100 100 100 100 90 85 97 100 100 100 100 100 100 99 100 100 99 100
9 7 6 6 6 6 6 8 9 12 16 15 13 15 15 16 16 17 15 16 20 22 26 28 35 43 51 64 74 78 80 74 72 75 92 94 100 100 100 100 100 100 100 100 100 100 100 100 94 91 98 94 94 97
12 13 10 9 9 8 8 9 8 12 11 18 22 28 26 25 26 26 30 30 31 34 32 34 39 45 50 47 50 55 64 77 81 88 92 100 89 82 91 89 72 86 93 100 97 97 90 92 93 92 80 72 75 80
16 16 16 18 14 19 16 19 22 17 25 23 27 28 47 41 37 38 44 58 70 73 91 94 92 92 93 100 100 99 95 100 100 100 84 83 86 99 100 98 98 93 92 90 79 70 73 86 81 62 68 72 69 85
22 21 28 20 21 27 21 22 32 22 25 25 26 23 23 19 27 36 24 26 41 62 100 100 97 94 99 100 100 100 100 100 100 100 100 100 96 100 100 100 100 100 96 91 86 84 64 64 71 65 63 69 74 79
44 42 40 37 33 35 34 35 40 43 37 30 40 42 42 27 30 32 32 35 36 38 50 59 62 69 74 78 85 90 85 86 99 100 100 100 100 96 93 90 89 91 91 91 83 66 66 63 64 69 70 70 70 74
63 58 56 50 46 43 50 54 52 56 52 60 44 44 50 53 56 57 43 52 55 56 58 60 55 66 75 62 55 61 71 86 82 86 87 82 82 84 94 91 87 85 85 80 80 76 70 75 76 73 71 69 69 71
75 71 67 74 62 62 59 59 61 64 66 76 76 74 80 84 84 84 81 70 77 65 66 64 74 83 88 73 67 69 73 72 61 65 67 67 66 71 71 75 76 71 70 73 77 78 74 66 62 62 65 67 67 60
90 90 90 80 95 92 89 79 76 74 85 91 96 97 97 98 94 99 94 88 93 92 93 89 82 70 72 82 84 87 86 84 81 96 99 92 93 88 79 69 66 74 71 55 53 55 55 58 57 53 52 51 50 46
100 100 98 92 81 83 75 86 92 85 95 95 80 65 64 68 72 70 75 74 66 60 59 65 72 77 87 88 80 70 62 56 50 55 62 62 62 51 49 51 49 48 53 54 50 46 45 45 46 43 38 32 27 24
100 100 100 100 100 100 100 100 100 100 100 100 100 96 93 91 91 86 78 73 68 65 65 64 60 58 54 51 49 49 48 49 49 48 48 49 50 49 47 45 43 42 40 37 34 31 30 29 26 23 19 16 13 11
96 93 94 90 92 93 91 90 88 84 82 82 80 78 78 75 70 65 59 55 51 50 48 47 46 45 44 43 41 38 35 33 32 32 31 29 27 25 24 23 23 22 21 20 19 17 15 12 10 9 8 7 6 5
78 78 82 82 83 84 83 82 80 76 73 69 64 59 55 49 43 40 37 36 36 37 38 36 34 32 30 28 26 24 22 20 19 18 17 17 17 16 15 14 13 12 11 10 9 8 8 7 6 5 5 5 4 4
79 82 81 77 76 74 75 71 68 66 61 56 50 43 37 32 27 22 21 20 17 13 11 9 8 8 8 9 9 10 10 10 9 8 8 8 7 7 7 6 6 6 6 6 6 5 5 5 4 4 4 3 3 3
84 79 76 73 70 71 69 66 60 55 47 41 33 28 19 16 14 12 9 7 6 5 5 5 5 5 5 4 4 4 4 5 5 5 5 5 5 5 5 5 5 5 4 4 4 4 3 3 3 3 3 3 2 2
76 72 64 60 59 58 53 45 39 35 30 23 16 10 8 7 6 5 5 4 4 4 4 4 4 4 4 4 4 4 4 3 3 3 3 3 3 3 3 3 3 3 3 2 3 3 3 3 2 2 2 2 2 2
49 49 47 44 38 32 29 24 19 14 9 8 7 6 6 5 5 5 4 4 4 4 4 4 3 3 3 3 3 3 3 3 3 3 3 3 2 2 2 2 2 2 3 2 2 2 2 2 2 2 2 1 1 1
25 25 23 19 17 15 12 11 10 8 7 6 5 5 5 5 4 4 4 4 3 3 3 3 3 3 3 3 2 2 2 2 2 2 2 2 3 3 3 2 2 2 2 2 2 2 2 2 1 1 1 1 1 1
11 12 12 12 11 10 9 8 7 6 5 5 5 4 4 4 4 3 3 3 3 3 2 2 2 2 2 2 2 2 3 3 3 2 2 2 2 2 2 2 2 2 1 1 1 1 1 1 1 1 1 1 1 1
10 10 9 8 7 7 6 6 5 4 4 4 4 4 3 3 3 3 3 2 2 2 2 2 2 3 3 3 3 2 2 2 2 2 2 2 2 2 2 1 1 1 1 1 1 1 1 1 1 1 1 1 1 1
Wind_Speed
14 11 8 11 16 18 23 28 32 36 39 40 43 47 50 50 48 51 57 69 75 79 82 91 90 85 85 83 77 73 74 71 68 68 66 62 61 56 49 46 44 46 46 46 44 43 41 43 43 38 34 35 32 35
8 3 5 9 16 21 26 32 36 39 41 43 43 44 44 43 46 53 63 73 78 81 86 92 87 83 83 84 79 70 67 67 68 67 61 60 56 55 48 45 49 46 48 51 47 42 45 47 45 41 40 40 37 35
3 4 9 13 17 24 29 33 36 39 41 41 41 42 42 43 48 55 67 74 77 79 83 90 89 86 85 83 80 72 69 67 61 61 60 56 53 51 47 51 51 51 52 53 49 47 49 49 48 46 41 44 44 40
6 10 14 20 22 24 27 31 34 36 36 37 38 40 42 46 49 58 69 74 78 80 85 93 94 91 87 83 80 74 71 69 63 62 57 52 54 54 51 53 52 53 54 52 49 52 54 52 50 51 51 48 47 41
10 13 18 22 25 28 30 31 32 33 35 37 39 41 43 47 52 62 71 76 81 84 89 96 96 89 88 85 82 78 74 66 59 52 47 48 52 52 52 53 49 53 54 54 53 57 55 55 54 55 51 52 47 40
12 16 19 23 23 25 26 28 31 34 37 40 42 44 46 49 54 64 72 73 76 78 86 92 93 92 90 87 83 77 72 65 56 50 52 53 56 54 51 44 49 52 56 58 57 59 58 56 57 57 54 50 43 43
15 19 21 24 26 27 27 28 30 32 35 36 39 42 44 50 57 64 68 71 74 78 82 87 90 91 91 87 83 79 72 63 58 53 53 56 53 50 47 42 50 53 57 57 61 59 55 59 58 57 55 46 46 48
17 21 25 25 26 26 27 29 30 32 32 35 38 41 45 51 58 65 67 68 74 78 80 84 85 84 87 84 79 79 72 66 61 57 58 59 58 55 49 52 55 57 59 59 60 61 62 64 63 61 53 50 54 54
20 22 24 27 29 29 29 30 29 30 31 34 37 42 45 51 58 63 66 71 75 74 77 84 85 89 87 82 79 76 73 68 65 60 59 60 58 54 55 57 57 59 59 60 65 68 68 67 62 57 59 61 58 56
22 24 26 27 28 29 30 30 30 32 34 37 41 44 45 51 55 59 62 65 66 68 77 78 77 81 81 79 76 77 72 70 66 66 67 60 56 56 55 56 61 64 65 64 62 56 58 59 60 60 60 59 58 60
25 24 23 25 27 29 30 32 33 32 31 31 35 39 43 48 55 60 62 62 64 67 70 72 76 79 77 73 73 72 71 69 69 67 65 64 61 62 63 66 66 63 62 58 59 62 63 64 64 57 59 60 60 60
27 27 27 28 29 30 29 27 28 28 28 31 34 37 39 43 48 49 53 57 61 66 67 69 71 70 69 69 68 69 70 68 68 66 67 63 63 66 66 68 68 68 68 72 68 67 65 62 64 57 62 65 68 68
30 30 31 32 33 34 36 36 37 36 34 32 30 32 35 41 44 47 46 45 47 51 59 64 67 66 67 66 66 64 60 60 59 62 62 61 63 64 68 69 68 67 53 54 62 61 62 61 66 68 69 68 73 76
32 30 26 31 35 36 38 40 41 40 38 38 38 38 42 45 50 53 52 48 49 54 56 57 59 60 63 65 66 67 66 67 63 63 62 59 61 64 65 65 65 63 56 61 65 65 59 58 65 73 73 76 78 80
30 30 28 30 33 35 39 43 45 49 47 42 43 46 45 45 43 43 45 50 53 55 55 54 55 57 60 62 65 65 63 62 64 63 60 59 57 57 61 63 62 64 68 70 71 73 72 73 78 78 77 81 85 88
29 31 26 27 35 37 35 34 41 43 48 49 46 43 42 41 38 38 36 37 38 38 41 46 49 51 54 53 52 58 60 60 60 58 56 58 64 66 63 69 70 72 75 76 79 82 84 86 85 86 88 86 83 82
29 28 27 30 30 27 33 42 36 42 41 38 42 45 46 43 42 44 43 41 38 39 42 44 44 42 45 48 51 52 59 58 59 63 63 62 64 68 72 75 74 78 81 82 84 85 83 85 89 88 92 91 89 87
18 20 20 24 21 20 28 31 26 24 41 37 30 38 36 34 37 36 32 36 40 50 51 50 49 52 52 54 60 63 62 65 66 67 68 68 68 74 78 78 80 85 86 89 90 91 89 92 93 92 92 93 93 95
13 21 18 17 20 19 16 23 20 21 15 21 17 13 5 34 32 42 39 26 32 39 52 50 50 56 61 65 65 66 68 67 69 71 71 73 75 76 78 82 85 89 91 94 94 94 97 97 98 98 98 97 99 102
9 8 7 8 12 10 10 11 7 9 5 6 17 16 10 7 11 12 40 34 24 23 20 34 47 51 51 53 60 65 73 75 74 72 75 80 81 84 88 91 91 92 94 96 98 101 99 97 98 100 102 103 104 105
18 13 13 14 19 9 10 11 14 15 14 12 13 12 17 19 20 23 23 28 30 39 42 38 44 47 56 61 61 49 50 61 73 77 81 85 84 86 87 91 93 94 92 93 94 97 98 99 100 102 104 105 106 106
25 25 25 24 26 26 20 27 22 26 27 24 24 26 29 32 36 38 41 39 40 43 46 52 56 56 58 58 61 62 66 64 64 73 76 76 79 82 81 82 84 88 91 91 91 94 95 97 97 99 100 102 104 106
27 28 29 29 29 34 35 33 38 38 38 43 46 47 45 44 42 43 45 47 49 51 53 56 59 61 65 66 69 71 71 71 70 72 76 76 79 81 81 83 84 86 88 90 91 92 94 96 99 101 102 102 101 101
35 35 34 34 34 35 37 40 43 46 48 49 50 50 51 51 53 53 53 54 54 56 57 59 61 63 65 66 67 68 69 70 72 73 75 77 78 79 81 83 84 87 89 91 92 94 94 95 95 95 95 94 92 91
51 52 50 48 48 47 48 50 51 53 55 56 58 59 61 62 62 63 63 63 63 64 65 65 67 68 69 70 71 72 73 74 75 77 78 78 79 80 81 82 83 84 85 86 87 88 88 87 87 86 85 85 85 84
47 47 49 49 50 51 52 55 57 59 61 63 64 65 66 66 65 65 64 63 63 64 66 69 71 72 73 73 75 75 76 76 76 77 77 78 78 79 79 81 81 81 80 80 80 80 81 81 82 81 81 80 79 78
49 50 51 53 54 55 56 58 60 62 63 64 64 64 64 64 63 61 60 61 63 63 63 62 62 62 62 63 65 67 69 69 69 69 69 69 69 69 70 70 71 72 72 73 73 74 74 74 74 74 73 72 72 73
55 56 57 57 58 59 60 62 64 66 66 66 66 66 64 60 59 58 59 59 59 58 58 57 55 54 54 53 53 53 54 56 57 59 59 60 62 62 63 64 65 65 66 66 65 65 66 66 67 67 67 67 67 67
59 60 61 61 62 63 64 65 65 66 67 67 63 60 57 54 55 56 56 55 54 53 52 52 51 50 49 48 48 48 48 49 50 51 51 52 52 53 54 55 56 57 57 58 59 59 60 60 61 62 62 62 62 62
58 59 59 60 61 60 62 64 64 63 60 58 55 53 53 53 53 53 52 50 49 48 48 47 46 45 44 44 44 44 45 46 47 48 48 49 50 51 51 52 53 53 53 53 54 55 56 57 58 58 58 58 58 57
56 57 58 57 57 58 58 58 59 57 54 52 50 50 49 49 48 47 45 43 41 41 41 41 42 42 42 43 43 43 44 44 45 45 46 46 46 47 48 48 49 50 51 52 52 52 52 51 51 51 51 51 50 50
50 51 52 53 54 55 54 53 51 50 48 46 45 43 42 41 40 40 40 39 39 39 39 38 38 39 39 39 40 40 40 41 41 42 42 43 44 45 46 47 47 47 47 47 47 47 48 47 47 46 46 46 46 45
47 47 47 48 47 46 45 45 45 44 41 39 38 38 38 38 38 38 38 37 37 37 36 36 36 36 37 37 37 37 38 39 39 40 40 41 42 43 43 43 43 44 44 44 44 43 43 43 43 43 43 42 41 40
Wind_Direction
309 296 261 227 204 191 188 186 185 182 180 184 191 196 200 201 198 196 188 186 185 189 187 186 184 184 189 197 199 202 208 211 212 218 221 223 227 231 236 242 252 257 261 266 271 275 280 294 300 306 302 309 297 282
324 278 199 183 175 174 175 175 172 172 175 181 187 192 193 192 191 189 185 184 185 188 187 186 185 187 190 197 198 203 206 208 211 215 217 221 226 231 234 242 247 249 255 264 273 274 278 286 296 299 303 303 299 289
12 149 147 147 160 165 164 167 169 170 173 176 180 185 187 186 187 185 182 183 184 187 185 186 186 190 192 195 199 202 206 210 209 211 215 216 219 226 232 238 236 249 256 263 267 274 280 286 293 297 296 298 299 290
82 130 138 142 145 152 156 160 162 165 168 171 175 180 182 184 184 182 180 182 183 184 183 184 186 191 192 196 199 201 206 212 212 212 215 223 227 230 228 232 239 250 257 262 268 271 277 286 291 292 296 295 294 285
99 118 125 134 139 144 147 150 154 160 164 167 170 175 180 182 181 179 179 183 183 184 184 187 191 193 192 196 198 200 207 212 213 212 212 214 219 221 224 232 243 249 255 263 267 272 278 283 288 290 292 291 288 282
111 119 128 127 130 135 141 148 154 159 163 166 171 175 177 178 177 177 180 184 184 183 185 187 192 192 194 199 201 201 206 208 211 206 210 213 217 223 231 239 240 248 253 258 264 271 277 281 285 287 286 288 284 281
117 119 122 127 132 137 142 147 154 160 162 165 169 171 174 176 174 176 179 183 184 187 188 189 192 194 196 200 203 205 207 207 208 209 211 217 222 228 233 239 241 245 253 261 269 273 276 280 283 285 285 280 284 286
120 125 126 127 131 136 143 148 153 158 160 162 167 171 174 175 175 177 178 178 181 184 187 189 193 195 198 202 204 209 208 208 210 212 216 222 226 230 233 239 245 253 259 263 268 273 277 281 281 278 278 275 278 282
113 119 123 128 132 136 140 144 149 153 156 160 164 169 172 175 176 177 180 182 182 182 184 189 195 197 201 203 206 210 212 213 214 215 220 226 230 235 238 243 250 256 260 263 268 273 278 279 276 274 275 278 281 284
104 116 123 127 131 136 139 143 148 153 157 161 164 168 173 175 175 177 178 179 182 181 185 191 196 201 204 206 208 212 214 214 216 220 225 231 235 239 243 249 255 260 264 269 269 270 272 273 278 283 285 282 282 283
104 112 117 121 126 133 139 143 146 152 156 157 159 166 173 173 176 176 179 179 179 180 187 190 196 201 205 209 213 217 218 219 222 226 230 234 239 245 249 253 255 258 259 260 261 264 274 276 276 282 285 284 280 279
99 109 115 118 121 125 128 131 133 135 138 144 157 166 169 171 173 177 181 178 180 181 183 191 198 203 207 210 213 218 222 224 227 231 236 239 244 248 249 252 257 260 260 264 268 272 274 274 279 282 283 281 281 280
94 101 110 117 122 123 123 127 127 128 131 138 146 155 161 165 168 169 173 175 177 182 185 190 197 201 207 211 216 221 223 224 227 229 233 237 242 246 249 252 257 260 261 270 269 271 269 270 279 284 283 282 283 284
94 94 106 121 124 128 132 132 128 129 131 137 143 151 151 156 159 164 168 171 176 180 185 189 193 198 204 209 217 223 225 226 228 228 233 236 239 244 248 250 251 255 253 257 259 265 275 282 281 279 282 283 285 286
83 96 99 107 121 123 126 124 126 122 125 130 137 141 148 154 159 163 172 176 179 183 188 191 192 197 202 208 213 219 222 225 228 231 233 234 234 237 240 239 242 244 248 251 255 259 264 270 273 276 280 282 284 286
100 101 105 115 126 130 130 131 134 139 141 140 140 142 148 151 153 159 165 173 175 180 190 196 200 205 213 220 227 226 225 227 226 231 231 235 239 239 240 245 246 246 250 251 254 259 264 268 273 278 281 285 287 289
98 93 89 93 115 97 137 134 134 146 140 146 152 158 158 162 168 173 175 179 180 181 189 197 203 208 211 215 221 224 220 225 230 236 241 246 248 247 246 250 251 253 255 257 261 265 271 274 278 281 283 284 286 287
140 121 105 130 111 85 126 130 70 139 161 149 159 177 175 176 188 189 183 200 199 195 194 201 209 212 213 215 218 223 226 228 234 240 243 246 246 242 244 248 254 258 261 266 269 271 278 279 280 281 283 286 287 286
100 127 84 140 131 93 100 134 96 119 148 163 118 91 139 208 201 197 203 207 220 217 213 211 216 217 218 223 228 233 236 236 239 240 243 246 249 250 252 255 258 261 263 266 269 273 277 281 281 283 284 284 285 287
161 173 165 135 161 171 126 131 156 153 96 142 199 195 187 218 225 233 216 215 220 224 241 234 227 228 230 239 237 238 238 238 242 247 249 249 252 254 255 256 259 264 267 270 272 276 278 279 280 281 283 285 286 289
220 232 221 210 192 196 239 211 206 219 221 217 232 248 242 273 261 258 257 250 250 248 237 249 242 247 251 251 254 260 264 260 252 254 256 254 257 260 263 263 265 267 272 275 276 276 277 279 280 282 284 285 288 289
241 238 235 244 248 239 250 233 228 218 221 234 236 235 246 255 261 259 262 260 257 255 257 256 256 257 253 256 256 258 260 261 257 257 257 261 260 263 264 265 267 269 272 275 276 278 279 280 282 284 285 286 287 288
239 245 251 254 247 247 254 245 245 250 248 254 264 272 272 269 267 263 260 260 259 259 258 258 257 256 256 258 262 264 265 264 263 264 264 266 269 269 270 272 273 273 274 276 278 279 280 281 282 284 286 288 290 292
233 235 239 241 244 248 252 255 258 260 261 262 263 264 264 264 265 265 264 264 263 263 263 264 264 263 263 264 265 266 266 267 267 267 267 268 269 270 271 273 274 275 276 277 279 281 283 285 288 291 291 291 292 293
238 243 247 248 250 252 254 256 258 260 262 264 265 266 267 269 269 270 271 272 273 273 274 274 275 274 274 273 272 271 270 270 269 269 270 271 272 273 274 276 278 280 282 284 286 287 289 290 291 291 292 292 293 294
242 244 248 251 254 256 258 260 262 264 265 266 268 269 270 270 271 273 274 274 274 274 273 272 272 271 272 273 273 275 276 277 278 279 280 281 282 283 285 286 287 287 287 287 288 289 289 289 289 290 292 293 294 296
249 252 254 254 257 261 264 265 267 268 270 272 273 274 275 277 279 281 283 280 277 276 278 279 280 281 281 280 279 279 279 279 280 281 281 282 283 283 284 284 284 285 285 285 286 286 288 289 291 292 293 294 295 296
254 257 260 262 265 267 270 272 273 275 277 279 281 282 284 287 288 286 283 284 285 287 287 287 286 284 283 282 279 278 277 278 279 279 280 280 280 281 281 282 282 283 284 285 287 289 290 291 293 294 295 295 296 297
259 261 263 267 269 271 274 276 277 279 281 283 286 288 288 287 287 287 288 288 288 288 287 287 286 286 285 285 284 284 282 281 280 280 280 281 282 283 284 285 286 287 289 290 291 292 293 294 294 296 297 298 299 300
263 265 267 269 271 274 276 278 280 282 285 288 289 290 290 290 290 289 289 289 289 288 287 287 288 289 289 288 288 288 287 287 287 288 288 288 288 289 289 290 291 292 292 293 294 294 295 296 297 299 300 301 302 304
267 268 270 273 275 277 280 282 285 286 288 288 288 289 288 287 286 287 288 288 288 289 290 291 291 291 291 291 290 289 288 288 288 288 288 289 290 290 291 292 293 294 295 295 295 296 297 298 300 301 302 303 304 305
273 275 276 277 278 279 280 283 285 286 286 287 287 287 287 287 287 289 291 292 293 292 292 291 290 289 289 289 289 290 290 290 290 290 291 291 292 292 292 292 293 296 297 299 300 302 303 303 304 305 307 308 308 308
273 272 273 275 278 281 282 282 282 285 285 285 285 286 288 289 291 292 292 292 292 291 291 292 293 292 292 291 291 291 291 291 292 292 293 293 294 296 297 299 301 302 303 303 304 305 306 307 308 309 310 310 311 313